National Oceanic Atmosphere Administration National Weather Service Headquarters National Weather Service Headquarters
NOAA logo WFO Anchorage Scalable transition graphic NWS logo
Transition from title bar to navgation bar   Aviation Weather 05 AKDT 
blankspace Home   |   Mobile   |   Social Media   |   Mesonet   |   Surface Map   |   Radar   |   Submit Storm Reports   |   News =13 GMT 

LocalForecast by City, St or Zip Code

spacer

Forecasts/Products
  Public
  Forecast Discussion
    - With Glossary
  Aviation
  Marine
  Hydrology(RFC)
  Rivers & Lakes AHPS
  Ice Desk
  TV Weather
  Fire Weather
  Avalanche
  Travel 511
  Graphical
  xml logo RSS Feeds
  Marine FTPMail

spacer

Data
  Mesonet
  Model Graphics
  Local Model
  Observations
  Marine Obs
  Satellite/Radar
  Vent Factor
  Soaring Index
  Weather Links

spacer

Climate
  PAFC Climate
  Interactive Climate
  PAFC Records
  Local
  National
  More

spacer

Outreach
  About Us
  Community Outreach
  Kids' Page
  Tour/Speaker Request
  Weather Classroom
  Social Media

spacer

Reports
  COOP Observers
  Local Storm Reports
  Spotter Page
  Submit a Storm Report

spacer

Miscellaneous
  Archived Alaska Weather Stories
  Student Career Opportunities
  Research Papers

spacer

Print Friendly/
Low Bandwidth

  Public Forecasts
  Marine Forecasts

spacer

Contact Us
  mailto pafcweb

spacer

Facebook Follow the National Weather Service in Alaska on Twitter
USA.gov is the U.S. government's official web portal to all federal, state and local government web resources and services.


 ICAO ID:   AAWU Graphics

Internet access to TAFs and METAR observations is for planning purposes only. We can not guarantee the timeliness of internet products. Before flying please get a formal pilot briefing (1-800-992-7433) and ALWAYS file a Flight Plan!Pilot briefings are provided to licensed aircraft pilots, ONLY! Others may not use the above number to obtain weather information.

Check out the Key to TAFs and METARs for help with decoding the information.

A 12 hour summary of TAFs can be found here.

PANC TAF
PANC 311140Z 3112/0118  35006KT P6SM SKC
     FM311800 03007KT P6SM SCT070 BKN120
     FM010900 36009KT P6SM SCT060 BKN100 WS020/10035KT=


METAR PANC 311253Z 00000KT 9SM SCT050 M06/M09 A2930 RMK AO2 SLP925
     T10611094=
METAR PANC 311253Z 00000KT 9SM SCT050 M06/M09 A2930=
METAR PANC 311153Z 00000KT 10SM CLR M09/M11 A2931 RMK AO2 SLP928 4/001
     T10891111 11028 21089 58012=
METAR PANC 311153Z 00000KT 10SM CLR M09/M11 A2931=
METAR PANC 311053Z COR 00000KT 10SM CLR M07/M10 A2933 RMK AO2 SLP934
 T10721100=
METAR PANC 311053Z 00000KT 9SM CLR M07/M10 A2933=
METAR PANC 310953Z 00000KT 10SM CLR M06/M11 A2934 RMK AO2 SLP939
     T10611106=
METAR PANC 310953Z 00000KT 10SM CLR M06/M11 A2934=


National Weather Service
Anchorage Forecast Office
6930 Sand Lake Road
Anchorage, Ak 99502
(907) 266-5105 M-F/7-5pm
About Us
Career Opportunities
Glossary
Disclaimer
Privacy Policy
Credits
Alaska Weather Information Line:
1-800-472-0391